Location: Le Domaine
(47.0333°N, 76.5361°W)
Time: 03:17:24
(UTC-05:00)

Transit 2A Rocket - Pass Details

Date: 16 November 2019
Orbit: 594 x 909 km, 66.7° (Epoch: 13 December)

Event Time Altitude Azimuth Distance (km) Brightness Sun altitude
Exits shadow 04:58:32 - 356° (N) 2,071 7.2 -22.4°
Reaches altitude 10° 04:59:11 10° 3° (N) 1,939 7.1 -22.3°
Maximum altitude 05:01:14 13° 32° (NNE) 1,754 7.2 -21.9°
Drops below altitude 10° 05:03:17 10° 60° (ENE) 1,955 7.9 -21.6°
Sets 05:06:46 0° 89° (E) 2,893 9.5 -21.0°
